Regional Weather Roundup
Issued by NWS

Home | Current Version | Previous Version | Text Only | Print | Product List | Glossary On
Versions: 1 2 3 4 5 6 7 8 9 10 11 12 13 14 15 16 17 18 19 20 21 22 23 24 25 26 27 28 29 30 31 32 33 34 35 36 37 38 39 40 41 42 43 44 45 46 47 48 49 50
019
ASUS43 KIND 270909
RWRIN

WEATHER ROUNDUP FOR INDIANA
NATIONAL WEATHER SERVICE INDIANAPOLIS IN
400 AM EST THU FEB 27 2020

NOTE: "FAIR" INDICATES FEW OR NO CLOUDS BELOW 12,000 FEET WITH NO
SIGNIFICANT WEATHER AND/OR OBSTRUCTIONS TO VISIBILITY.

* - STATION DOES NOT REPORT WEATHER SUCH AS PRECIPITATION OR FOG.

+ - STATION NOT QUALITY CONTROLLED BY THE NATIONAL WEATHER SERVICE.
    USE DATA WITH CAUTION...ESPECIALLY DEWPOINT AND RELATIVE
    HUMIDITY OBSERVATIONS.

INZ001>003-010>013-019-020-271000-
NORTHWEST INDIANA

CITY           SKY/WX    TMP DP  RH WIND       PRES   REMARKS
GARY /AIRPORT/ CLOUDY    27  10  47 NW12G17   30.08S WCI  17
KNOX *+        CLOUDY    27  12  54 W15G21    30.04S WCI  15
LA PORTE +     CLOUDY    25  15  65 NW9G20    30.03F WCI  15
MICHIGAN CITY+ CLOUDY    27  19  74 W12       30.04F WCI  16
MONTICELLO +   CLOUDY    24  16  73 W8        30.07F WCI  15
RENSSELAER +   CLOUDY    25  18  74 W7        30.08F WCI  17
VALPARAISO     CLOUDY    24   9  52 NW12G28   30.05S WCI  13

$$

LMZ046-743>745-271000-
SOUTHERN LAKE MICHIGAN

STATION/POSITION TIME  TEMP    WIND        PRES    WAVE
                       AIR SEA DIR/SP/G            HT
                 (UTC) (F)     (DEG/KT/KT) (MB)    (FT)
MICHIGAN CITY    0840   27     290/ 20/ 22   N/A

$$

INZ004-005-014>016-021>024-271000-
NORTH CENTRAL INDIANA

CITY           SKY/WX    TMP DP  RH WIND       PRES   REMARKS
GOSHEN         FLURRIES  24  18  77 NW14      29.98F WCI  12
LOGANSPORT +   CLOUDY    25  16  68 W8        30.07S WCI  16
PERU/GRISSOM   CLOUDY    24  17  76 W12       30.03F WCI  13
PLYMOUTH *+    CLOUDY    23  16  74 W13       30.00F WCI  11
ROCHESTER +    CLOUDY    27  18  69 W10G17    30.03F WCI  17
SOUTH BEND     LGT SNOW  25  20  81 NW12      30.00F WCI  14
WARSAW +       FLURRIES  25  19  80 W10       30.00S WCI  15

$$

INZ006>009-017-018-025>027-271000-
NORTHEAST INDIANA

CITY           SKY/WX    TMP DP  RH WIND       PRES   REMARKS
ANGOLA *+      LGT SNOW  23  19  86 NW9       29.93F WCI  13
AUBURN +       FLURRIES  27  19  74 W16G22    29.96S WCI  14
FORT WAYNE     FLURRIES  24  19  81 W15G26    29.99R WCI  11
HUNTINGTON +   FLURRIES  24  16  74 W9G16     30.00S WCI  14
KENDALLVILLE + FLURRIES  24  16  73 NW7G18    29.95S WCI  16

$$

INZ028-029-035-036-043>045-051>053-271000-
WEST CENTRAL INDIANA

CITY           SKY/WX    TMP DP  RH WIND       PRES   REMARKS
CRAWFORDSVL +  CLOUDY    24  16  72 W8        30.10F WCI  14
GREENCASTLE +  CLOUDY    26  15  64 W7        30.11S WCI  18
LAFAYETTE      CLOUDY    24  19  81 W5        30.10S WCI  18
TERRE HAUTE    CLOUDY    29  18  63 W5        30.14F WCI  24

$$

INZ030>032-037>040-046>048-054>057-064-065-271000-
CENTRAL INDIANA

CITY           SKY/WX    TMP DP  RH WIND       PRES   REMARKS
ANDERSON +     CLOUDY    24  16  71 W9        30.06S WCI  14
FRANKFORT +    CLOUDY    26  17  70 W10       30.09F WCI  16
INDIANAPOLIS   CLOUDY    24  15  68 W8        30.10S WCI  15
-EAGLE CREEK   CLOUDY    25  15  66 W9        30.09S WCI  15
KOKOMO +       CLOUDY    23  16  74 W16       30.05F WCI  10
MARION +       CLOUDY    23  19  85 W16       30.04S WCI  10
SHELBYVILLE    CLOUDY    26  13  57 W16G24    30.09R WCI  14
ZIONSVILLE +   CLOUDY    22  15  74 NW8       30.08S WCI  13

$$

INZ033-034-041-042-049-050-058-059-271000-
EAST CENTRAL INDIANA

CITY           SKY/WX    TMP DP  RH WIND       PRES   REMARKS
MUNCIE         CLOUDY    25  17  72 MISG      30.03S
PORTLAND +     CLOUDY    27  18  69 W15G25    30.00S WCI  15
RICHMOND +     FLURRIES  23  21  93 W17       30.01S WCI   9

$$

INZ060-061-067>069-081>083-085>088-271000-
SOUTHWEST INDIANA

CITY           SKY/WX    TMP DP  RH WIND       PRES   REMARKS
EVANSVILLE     CLOUDY    30  15  53 NW10G23   30.20S WCI  21
HUNTINGBURG +  CLOUDY    29  19  66 NW12      30.17F WCI  19
WASHINGTON +   CLOUDY    29  19  66 NW9       30.17F WCI  21

$$

INZ062-063-066-070>080-084-089>092-271000-
SOUTH CENTRAL AND SOUTHEAST INDIANA

CITY           SKY/WX    TMP DP  RH WIND       PRES   REMARKS
BATESVILLE +   CLOUDY    25  18  74 NW9G16    30.07R WCI  15
BEDFORD +        N/A     27  14  59 NW9G17    30.13S WCI  17
BLOOMINGTON    CLOUDY    27  14  58 VRB7      30.12S WCI  19
FRENCH LICK *+ CLOUDY    28  18  64 NW7       30.14S WCI  21
JEFFERSONVL +  CLOUDY    30  20  67 NW9G16    30.14R WCI  22
MADISON *+     CLOUDY    28  21  74 W9        30.11S WCI  20
NORTH VERNON + CLOUDY    25  18  74 NW10      30.10S WCI  15
SEYMOUR +      CLOUDY    30  19  64 W14G23    30.13R WCI  20

$$





USA.gov is the U.S. government's official web portal to all federal, state and local government web resources and services.